• In Deutschland
  • Länderverzeichnis
  • Für 7 Tage
  • Wassertemperatur
  • Satellitenkarten
  • Wetterkarte
  • Widgets
  • user-avatar
    Anmelden

    Stündliche Wetter Emelyanovo

    Heute, 22 September, Samstag

    Zeit Temperatur Niederschläge Wind Luftdruck Luftfeuchtigkeit
    00:00 +16°C° 0 mm 2 m/S 747 mmHg 92%
    01:00 +16°C° 0 mm 2 m/S 747 mmHg 93%
    02:00 +16°C° 0 mm 2 m/S 747 mmHg 95%
    03:00 +16°C° 0 mm 2 m/S 747 mmHg 95%
    04:00 +16°C° 0 mm 3 m/S 747 mmHg 95%
    05:00 +16°C° 0 mm 3 m/S 747 mmHg 95%
    06:00 +17°C° 0 mm 3 m/S 746 mmHg 89%
    07:00 +18°C° 0 mm 4 m/S 746 mmHg 84%
    08:00 +20°C° 0 mm 5 m/S 746 mmHg 77%
    09:00 +21°C° 0 mm 5 m/S 745 mmHg 70%
    10:00 +22°C° 0 mm 6 m/S 745 mmHg 63%
    11:00 +24°C° 0 mm 6 m/S 744 mmHg 56%
    12:00 +24°C° 0 mm 6 m/S 744 mmHg 54%
    13:00 +24°C° 0 mm 6 m/S 743 mmHg 53%
    14:00 +26°C° 0 mm 6 m/S 743 mmHg 51%
    15:00 +25°C° 0 mm 5 m/S 742 mmHg 55%
    16:00 +22°C° 0 mm 5 m/S 742 mmHg 60%
    17:00 +21°C° 0 mm 4 m/S 741 mmHg 64%
    18:00 +20°C° 0.2 mm 4 m/S 741 mmHg 69%
    19:00 +19°C° 0.2 mm 4 m/S 741 mmHg 74%
    20:00 +18°C° 0.2 mm 4 m/S 741 mmHg 78%
    21:00 +17°C° 0.1 mm 4 m/S 741 mmHg 82%
    22:00 +14°C° 0.1 mm 3 m/S 741 mmHg 86%
    23:00 +13°C° 0.1 mm 3 m/S 741 mmHg 89%

    Morgen, 23 September, Sonntag

    Zeit Temperatur Niederschläge Wind Luftdruck Luftfeuchtigkeit
    00:00 +12°C° 0.4 mm 3 m/S 741 mmHg 90%
    01:00 +12°C° 0.4 mm 3 m/S 741 mmHg 90%
    02:00 +11°C° 0.4 mm 3 m/S 741 mmHg 90%
    03:00 +10°C° 1.1 mm 3 m/S 741 mmHg 91%
    04:00 +10°C° 1.1 mm 3 m/S 741 mmHg 92%
    05:00 +9°C° 1.1 mm 3 m/S 741 mmHg 92%
    06:00 +9°C° 1.3 mm 3 m/S 741 mmHg 92%
    07:00 +10°C° 1.3 mm 3 m/S 741 mmHg 92%
    08:00 +10°C° 1.3 mm 3 m/S 740 mmHg 92%
    09:00 +11°C° 0.2 mm 3 m/S 741 mmHg 88%
    10:00 +11°C° 0.2 mm 3 m/S 741 mmHg 83%
    11:00 +12°C° 0.2 mm 4 m/S 741 mmHg 78%
    12:00 +13°C° 0.1 mm 4 m/S 741 mmHg 74%
    13:00 +13°C° 0.1 mm 4 m/S 741 mmHg 69%
    14:00 +14°C° 0.1 mm 4 m/S 741 mmHg 65%
    15:00 +13°C° 0.1 mm 4 m/S 741 mmHg 69%
    16:00 +12°C° 0.1 mm 3 m/S 741 mmHg 73%
    17:00 +12°C° 0.1 mm 3 m/S 741 mmHg 77%
    18:00 +11°C° 0.2 mm 3 m/S 741 mmHg 81%
    19:00 +10°C° 0.2 mm 3 m/S 741 mmHg 84%
    20:00 +9°C° 0.2 mm 3 m/S 741 mmHg 88%
    21:00 +9°C° 0 mm 3 m/S 741 mmHg 89%
    22:00 +8°C° 0 mm 3 m/S 741 mmHg 90%
    23:00 +8°C° 0 mm 3 m/S 741 mmHg 91%

    übermorgen, 24 September, Montag

    Zeit Temperatur Niederschläge Wind Luftdruck Luftfeuchtigkeit
    00:00 +8°C° 0 mm 3 m/S 741 mmHg 92%
    01:00 +7°C° 0 mm 3 m/S 741 mmHg 93%
    02:00 +7°C° 0 mm 3 m/S 741 mmHg 93%
    03:00 +7°C° 0 mm 3 m/S 741 mmHg 94%
    04:00 +5°C° 0 mm 3 m/S 741 mmHg 95%
    05:00 +5°C° 0 mm 3 m/S 741 mmHg 96%
    06:00 +7°C° 0 mm 3 m/S 741 mmHg 92%
    07:00 +8°C° 0 mm 3 m/S 741 mmHg 89%
    08:00 +9°C° 0 mm 3 m/S 741 mmHg 85%
    09:00 +10°C° 0 mm 3 m/S 740 mmHg 81%
    10:00 +11°C° 0 mm 3 m/S 740 mmHg 76%
    11:00 +12°C° 0 mm 3 m/S 740 mmHg 71%
    12:00 +12°C° 0.5 mm 3 m/S 739 mmHg 75%
    13:00 +11°C° 0.5 mm 3 m/S 739 mmHg 79%
    14:00 +11°C° 0.5 mm 3 m/S 738 mmHg 83%
    15:00 +10°C° 1.8 mm 3 m/S 737 mmHg 87%
    16:00 +9°C° 1.8 mm 3 m/S 737 mmHg 91%
    17:00 +9°C° 1.8 mm 3 m/S 736 mmHg 94%
    18:00 +8°C° 1.9 mm 4 m/S 735 mmHg 94%
    19:00 +7°C° 1.9 mm 4 m/S 734 mmHg 94%
    20:00 +7°C° 1.9 mm 5 m/S 733 mmHg 94%
    21:00 +7°C° 2.6 mm 5 m/S 731 mmHg 94%
    22:00 +7°C° 2.6 mm 5 m/S 730 mmHg 94%
    23:00 +7°C° 2.6 mm 6 m/S 729 mmHg 94%

    25 September, Dienstag

    Zeit Temperatur Niederschläge Wind Luftdruck Luftfeuchtigkeit
    00:00 +5°C° 3 mm 6 m/S 728 mmHg 94%
    01:00 +5°C° 3 mm 6 m/S 728 mmHg 94%
    02:00 +5°C° 3 mm 6 m/S 727 mmHg 94%
    03:00 +5°C° 1.5 mm 7 m/S 727 mmHg 93%
    04:00 +5°C° 1.5 mm 7 m/S 728 mmHg 92%
    05:00 +5°C° 1.5 mm 8 m/S 728 mmHg 91%
    06:00 +5°C° 1.2 mm 8 m/S 729 mmHg 90%
    07:00 +5°C° 1.2 mm 8 m/S 730 mmHg 89%
    08:00 +5°C° 1.2 mm 9 m/S 731 mmHg 88%
    09:00 +5°C° 1.1 mm 9 m/S 732 mmHg 87%
    10:00 +5°C° 1.1 mm 9 m/S 733 mmHg 87%
    11:00 +5°C° 1.1 mm 9 m/S 734 mmHg 86%
    12:00 +5°C° 0.5 mm 8 m/S 735 mmHg 84%
    13:00 +5°C° 0.5 mm 8 m/S 736 mmHg 81%
    14:00 +6°C° 0.5 mm 8 m/S 737 mmHg 79%
    15:00 +5°C° 0.1 mm 8 m/S 739 mmHg 78%
    16:00 +5°C° 0.1 mm 7 m/S 740 mmHg 77%
    17:00 +5°C° 0.1 mm 6 m/S 741 mmHg 76%
    18:00 +5°C° 0 mm 6 m/S 742 mmHg 77%
    19:00 +4°C° 0 mm 6 m/S 743 mmHg 77%
    20:00 +5°C° 0 mm 5 m/S 744 mmHg 77%
    21:00 +3°C° 0 mm 5 m/S 745 mmHg 77%
    22:00 +2°C° 0 mm 5 m/S 745 mmHg 76%
    23:00 +2°C° 0 mm 5 m/S 746 mmHg 76%

    26 September, Mittwoch

    Zeit Temperatur Niederschläge Wind Luftdruck Luftfeuchtigkeit
    00:00 +1°C° 0 mm 4 m/S 746 mmHg 75%
    01:00 +1°C° 0 mm 4 m/S 747 mmHg 75%
    02:00 0°C° 0 mm 4 m/S 747 mmHg 75%
    03:00 0°C° 0 mm 4 m/S 747 mmHg 78%
    04:00 0°C° 0 mm 4 m/S 747 mmHg 81%
    05:00 0°C° 0 mm 4 m/S 748 mmHg 85%
    06:00 +1°C° 0 mm 4 m/S 748 mmHg 83%
    07:00 +2°C° 0 mm 5 m/S 748 mmHg 82%
    08:00 +3°C° 0 mm 5 m/S 748 mmHg 80%
    09:00 +5°C° 0.1 mm 5 m/S 747 mmHg 79%
    10:00 +6°C° 0.1 mm 5 m/S 747 mmHg 78%
    11:00 +7°C° 0.1 mm 5 m/S 747 mmHg 77%
    12:00 +7°C° 0.3 mm 5 m/S 747 mmHg 80%
    13:00 +7°C° 0.3 mm 5 m/S 746 mmHg 82%
    14:00 +7°C° 0.3 mm 5 m/S 746 mmHg 84%
    15:00 +7°C° 0.3 mm 5 m/S 745 mmHg 85%
    16:00 +7°C° 0.3 mm 5 m/S 744 mmHg 87%
    17:00 +7°C° 0.3 mm 5 m/S 744 mmHg 88%
    18:00 +7°C° 0.4 mm 6 m/S 743 mmHg 89%
    19:00 +7°C° 0.4 mm 6 m/S 743 mmHg 90%
    20:00 +7°C° 0.4 mm 6 m/S 742 mmHg 90%
    21:00 +6°C° 0.7 mm 7 m/S 741 mmHg 89%
    22:00 +6°C° 0.7 mm 7 m/S 740 mmHg 89%
    23:00 +6°C° 0.7 mm 8 m/S 740 mmHg 88%

    27 September, Donnerstag

    Zeit Temperatur Niederschläge Wind Luftdruck Luftfeuchtigkeit
    00:00 +6°C° 0.4 mm 8 m/S 739 mmHg 88%
    01:00 +6°C° 0.4 mm 8 m/S 738 mmHg 88%
    02:00 +6°C° 0.4 mm 8 m/S 738 mmHg 87%
    03:00 +6°C° 0.2 mm 8 m/S 737 mmHg 87%
    04:00 +6°C° 0.2 mm 8 m/S 736 mmHg 88%
    05:00 +6°C° 0.2 mm 8 m/S 736 mmHg 88%
    06:00 +6°C° 0.2 mm 8 m/S 735 mmHg 87%
    07:00 +7°C° 0.2 mm 8 m/S 735 mmHg 87%
    08:00 +7°C° 0.2 mm 8 m/S 734 mmHg 87%
    09:00 +9°C° 0.7 mm 8 m/S 734 mmHg 86%
    10:00 +9°C° 0.7 mm 7 m/S 734 mmHg 86%
    11:00 +10°C° 0.7 mm 7 m/S 734 mmHg 85%
    12:00 +10°C° 0.7 mm 7 m/S 733 mmHg 83%
    13:00 +10°C° 0.7 mm 7 m/S 733 mmHg 81%
    14:00 +10°C° 0.7 mm 7 m/S 733 mmHg 79%
    15:00 +10°C° 0.4 mm 6 m/S 733 mmHg 80%
    16:00 +9°C° 0.4 mm 5 m/S 733 mmHg 80%
    17:00 +8°C° 0.4 mm 4 m/S 733 mmHg 81%
    18:00 +8°C° 0.1 mm 4 m/S 734 mmHg 81%
    19:00 +7°C° 0.1 mm 4 m/S 734 mmHg 82%
    20:00 +7°C° 0.1 mm 4 m/S 734 mmHg 82%
    21:00 +6°C° 0 mm 4 m/S 734 mmHg 82%
    22:00 +6°C° 0 mm 5 m/S 735 mmHg 81%
    23:00 +5°C° 0 mm 5 m/S 735 mmHg 81%
    Mehr zeigen